Wind_Speed
46 44 41 36 39 38 40 40 40 38 41 43 43 41 32 34 34 30 29 29 30 29 33 30 27 29 28 26 26 27 27 28 29 29 26 29 32 36 38 35 35 37 37 37
44 45 41 43 42 43 43 43 41 41 43 44 45 45 35 34 33 35 33 30 31 31 30 28 27 29 28 27 26 26 27 28 27 25 27 28 34 38 34 34 35 34 34 33
45 43 45 46 45 44 46 45 43 46 45 45 49 46 40 32 32 35 37 31 31 30 29 28 28 29 27 27 26 26 27 26 24 24 26 30 35 35 32 33 33 30 28 30
38 41 45 47 49 47 47 48 49 51 51 49 49 52 43 30 31 35 37 32 31 30 31 28 27 26 26 27 27 25 24 23 23 24 26 32 36 30 30 31 28 25 23 24
38 39 41 44 38 45 47 51 52 52 53 55 50 50 44 34 29 33 36 35 30 29 29 27 25 25 24 24 23 23 22 21 21 23 28 34 32 26 27 27 24 22 19 18
41 44 45 45 44 47 49 50 52 53 55 59 53 50 47 34 31 34 35 35 31 28 27 25 25 25 24 22 21 21 21 20 19 23 29 33 27 23 24 22 21 21 18 17
45 45 44 43 46 45 49 47 48 46 49 56 55 53 49 38 32 37 34 33 31 28 27 27 26 24 22 21 21 20 19 18 19 24 29 29 24 24 22 20 19 19 20 16
53 49 50 49 47 47 49 48 53 48 42 44 50 53 50 47 36 40 30 27 30 28 28 27 26 24 21 21 20 18 16 17 19 24 25 25 25 25 20 18 16 17 19 22
67 62 56 59 62 57 54 56 47 45 46 40 42 45 45 45 44 39 31 27 28 29 27 27 26 25 22 21 19 16 15 17 19 21 21 22 23 21 18 15 13 14 19 21
70 67 59 67 69 67 63 57 54 53 44 48 40 40 38 39 38 40 29 26 30 28 27 26 26 25 23 20 17 15 15 16 17 17 18 20 21 18 18 16 16 17 18 21
67 67 59 67 66 65 62 63 64 56 47 43 43 38 36 30 30 34 35 27 26 28 27 26 26 25 23 20 18 16 15 15 14 13 14 17 17 14 13 12 14 15 18 18
63 63 62 62 58 60 57 44 51 55 52 47 42 36 39 34 26 34 34 28 29 27 28 27 26 24 21 20 18 17 15 13 12 9 9 13 13 12 13 12 13 16 14 20
59 60 63 61 46 46 54 51 52 43 43 45 44 38 39 29 27 33 38 35 35 34 31 30 27 24 20 18 18 17 15 12 9 7 6 10 13 13 12 9 6 10 16 8
50 56 60 61 48 36 48 57 50 59 58 52 46 32 38 29 32 34 38 36 36 36 35 30 25 22 19 17 17 16 15 12 8 6 4 7 10 10 9 4 4 4 8 4
43 49 52 57 57 56 48 56 64 50 59 55 52 47 44 36 36 33 42 39 35 34 33 30 27 24 21 18 17 16 16 13 10 6 1 5 5 7 11 8 4 4 3 3
28 31 39 51 52 58 66 52 59 72 52 57 51 46 44 41 37 40 34 39 37 33 32 31 28 25 22 19 18 16 16 15 12 9 4 3 4 2 6 9 10 5 6 2
29 30 31 39 43 52 62 63 61 51 54 48 54 50 46 45 43 42 43 36 42 38 33 30 27 23 20 18 18 17 16 16 14 11 7 4 3 2 3 7 9 7 7 7
26 27 26 27 30 45 49 58 63 60 58 55 48 51 46 46 45 45 43 42 39 38 36 32 27 23 19 17 16 17 17 16 16 13 10 7 5 3 0 4 6 7 10 8
19 21 25 26 22 29 33 39 57 74 63 60 66 43 53 44 43 46 47 47 46 40 38 35 33 29 22 18 18 18 17 16 16 14 13 10 8 5 3 2 3 5 6 7
11 15 20 23 19 21 17 24 39 61 71 67 58 60 42 43 43 44 43 50 47 39 37 33 29 33 27 23 19 20 19 17 17 16 14 12 11 7 6 4 3 3 3 3
12 8 14 18 21 18 13 16 26 39 51 65 69 51 53 51 41 43 46 44 47 41 34 34 32 30 25 23 20 21 20 18 17 17 16 15 12 9 7 6 6 5 4 3
14 16 12 16 20 13 12 16 23 24 31 40 60 57 51 48 41 44 47 47 46 46 37 35 32 31 30 26 23 23 21 18 18 19 18 16 13 11 9 7 7 6 5 4
17 19 18 17 20 27 18 23 21 21 25 30 40 57 60 52 45 48 47 48 42 48 42 38 36 32 29 30 26 25 23 19 19 20 20 18 14 12 11 9 7 7 7 7
21 24 25 17 20 25 21 19 20 22 20 25 46 54 67 65 61 53 49 49 43 39 48 41 40 35 32 31 30 27 24 20 20 22 21 19 16 14 13 11 10 9 7 6
14 23 28 21 19 26 25 24 26 27 26 21 26 35 48 66 76 58 54 55 45 41 45 47 43 41 36 33 31 27 26 22 21 22 21 20 18 15 13 13 11 9 8 8
13 11 20 23 24 30 30 29 28 24 23 22 24 24 32 46 59 64 56 61 45 41 45 51 48 46 39 35 33 28 27 23 21 22 22 20 19 17 15 13 11 10 9 7
Wind_Direction
262 264 269 268 261 259 259 259 261 260 261 261 264 265 258 259 263 258 253 250 248 245 244 247 247 249 252 256 259 263 269 272 270 272 279 282 283 287 290 282 290 293 293 292
261 261 270 266 264 260 257 258 258 259 262 262 259 261 256 254 254 259 255 249 249 246 245 245 244 249 254 256 259 265 268 267 270 275 278 280 286 292 285 283 288 291 291 294
263 265 265 267 268 265 261 260 260 259 259 258 259 258 253 249 250 250 255 251 250 249 247 244 242 247 254 259 262 264 266 268 273 277 281 285 288 291 280 282 287 288 292 300
264 263 265 267 268 264 261 260 257 255 255 256 254 257 254 247 248 250 253 251 250 250 248 245 243 246 252 259 261 260 262 269 273 279 285 289 290 285 282 284 289 286 293 299
263 256 255 258 267 268 268 260 257 257 258 259 258 260 256 246 243 249 249 250 246 247 249 247 245 247 251 254 255 258 263 268 273 284 290 289 291 278 283 289 289 281 288 291
260 261 259 260 262 268 271 270 267 261 259 258 259 258 258 250 232 242 243 246 243 241 245 241 241 243 247 249 252 257 260 265 277 286 288 291 285 276 280 290 285 285 279 281
265 264 260 260 261 267 271 276 273 277 270 264 260 258 255 254 233 240 237 236 239 237 237 238 240 237 238 242 248 252 257 268 279 284 289 291 281 275 284 291 281 278 281 275
275 271 264 261 262 269 270 271 273 282 281 272 264 261 256 253 242 226 240 231 230 229 233 236 240 237 235 238 242 247 258 268 277 284 290 293 282 276 284 285 272 272 275 269
270 271 266 263 258 261 269 269 275 265 267 274 267 262 255 251 246 220 234 227 222 224 228 231 235 238 237 236 237 243 255 264 273 284 292 295 285 276 277 280 276 279 271 265
269 266 261 258 256 256 259 264 258 257 260 266 272 266 260 246 239 226 216 216 218 221 224 227 232 235 234 234 234 238 245 258 272 286 299 298 288 285 280 282 279 290 284 271
265 263 261 252 251 254 255 253 254 256 249 256 263 268 263 253 235 221 207 213 217 215 221 224 227 231 232 232 232 233 237 251 269 289 305 303 300 305 302 295 292 297 294 283
263 258 259 255 248 245 242 242 255 261 255 250 252 256 261 255 232 212 198 194 203 207 213 216 220 225 227 229 231 231 232 245 266 290 310 317 322 318 319 306 305 302 299 306
256 254 253 251 245 246 238 237 235 234 235 244 239 250 257 254 222 215 196 194 194 198 204 207 212 217 220 226 230 231 230 237 258 286 316 320 323 328 332 322 306 316 317 320
256 252 249 247 235 227 233 226 231 241 244 244 245 240 245 234 197 207 190 193 200 202 202 206 207 212 214 220 227 231 227 232 241 262 319 322 339 8 351 319 3 344 336 75
258 253 249 246 241 223 216 227 226 208 224 219 232 233 232 234 212 195 194 184 193 203 204 202 203 207 209 215 220 225 225 227 229 233 254 323 341 28 34 33 326 46 24 123
266 260 252 247 242 237 221 219 229 231 226 220 226 227 225 227 226 214 182 186 185 190 201 200 200 206 209 211 215 219 222 223 221 221 209 293 338 358 9 30 37 91 149 117
265 265 257 251 241 238 233 223 227 228 231 231 233 226 214 221 224 222 216 195 195 193 192 198 197 201 209 212 217 216 221 223 219 217 213 221 288 339 14 39 54 83 103 163
266 260 264 255 241 236 236 225 219 220 222 220 222 215 220 219 221 223 222 214 202 209 201 201 204 204 209 212 221 223 221 226 225 218 213 206 227 265 32 61 66 81 96 116
273 255 252 243 241 236 241 226 221 230 223 226 225 219 211 204 220 222 218 217 207 206 207 213 216 210 208 218 219 221 222 223 229 220 215 207 214 226 247 127 101 87 95 111
256 284 262 230 234 237 246 226 222 223 231 228 224 220 198 224 223 224 220 213 219 212 213 219 219 216 216 221 221 221 219 221 226 219 214 211 215 213 229 230 196 144 132 122
250 296 287 242 224 227 219 225 229 227 230 234 232 225 225 223 224 224 223 214 214 208 215 215 217 216 212 217 222 221 220 217 225 221 213 209 212 211 221 222 226 208 202 194
248 260 259 237 232 198 204 226 228 231 242 238 234 228 214 216 211 223 217 215 210 206 208 212 217 220 213 215 223 218 216 215 222 222 215 210 210 212 220 228 231 219 209 205
265 258 239 223 220 235 240 242 229 217 220 230 234 233 214 222 218 223 215 212 212 206 204 209 215 217 213 213 221 218 211 210 217 221 216 212 207 212 215 221 220 218 204 198
265 261 240 227 214 210 232 223 222 219 213 214 217 222 229 229 218 213 209 203 205 208 204 208 213 214 213 209 215 215 209 207 216 221 215 213 205 209 212 212 212 212 206 212
267 246 233 217 220 219 219 215 212 216 220 213 208 213 214 216 213 210 211 207 208 210 208 208 210 212 213 207 210 212 205 205 214 222 217 214 205 205 206 207 209 207 214 214
286 258 231 222 232 222 221 223 213 216 225 226 228 217 213 211 215 210 207 210 206 211 209 207 210 210 211 206 207 210 205 202 210 218 214 211 204 201 206 204 200 207 216 223
Height
5774 5775 5777 5774 5771 5771 5771 5770 5770 5772 5769 5771 5773 5776 5779 5778 5776 5780 5782 5782 5784 5785 5783 5785 5788 5787 5788 5790 5791 5791 5790 5790 5790 5790 5788 5786 5785 5782 5778 5775 5772 5769 5765 5761
5764 5764 5766 5761 5760 5761 5760 5759 5761 5762 5758 5760 5760 5763 5770 5769 5770 5769 5772 5774 5777 5778 5779 5779 5781 5781 5782 5782 5783 5783 5784 5784 5784 5782 5781 5780 5777 5773 5770 5767 5764 5761 5757 5753
5751 5755 5753 5750 5751 5752 5750 5751 5752 5749 5747 5748 5747 5751 5758 5761 5760 5761 5762 5766 5768 5771 5773 5773 5774 5774 5775 5776 5776 5776 5777 5777 5776 5775 5774 5772 5768 5765 5762 5760 5758 5754 5751 5746
5742 5744 5741 5740 5741 5739 5739 5739 5738 5737 5736 5736 5739 5737 5746 5753 5752 5752 5754 5758 5759 5762 5764 5766 5767 5767 5768 5769 5769 5770 5770 5770 5770 5768 5766 5764 5760 5757 5755 5753 5751 5747 5744 5740
5731 5732 5729 5729 5730 5726 5728 5726 5726 5726 5726 5725 5729 5727 5735 5744 5745 5743 5745 5748 5751 5754 5756 5759 5759 5759 5761 5762 5763 5763 5763 5763 5762 5760 5759 5756 5753 5751 5749 5746 5744 5741 5738 5737
5720 5719 5720 5720 5718 5716 5716 5715 5714 5715 5715 5714 5719 5721 5725 5734 5736 5734 5735 5738 5741 5745 5748 5751 5752 5752 5754 5755 5756 5757 5757 5757 5756 5754 5752 5749 5746 5745 5742 5740 5737 5735 5734 5732
5707 5710 5710 5709 5706 5707 5705 5705 5705 5704 5704 5708 5706 5708 5714 5721 5723 5724 5726 5730 5734 5738 5741 5744 5745 5746 5747 5749 5750 5751 5752 5751 5750 5749 5746 5742 5740 5738 5736 5733 5731 5729 5728 5728
5690 5697 5699 5702 5699 5694 5692 5694 5692 5697 5696 5696 5694 5696 5704 5706 5712 5715 5718 5724 5727 5730 5733 5737 5739 5740 5741 5743 5744 5745 5746 5746 5745 5743 5740 5736 5734 5732 5729 5727 5725 5724 5723 5723
5667 5672 5684 5682 5684 5681 5682 5679 5689 5681 5686 5685 5687 5688 5692 5693 5700 5704 5710 5715 5719 5722 5725 5729 5732 5734 5736 5737 5738 5739 5740 5741 5740 5738 5735 5731 5728 5725 5723 5721 5720 5718 5717 5717
5642 5644 5663 5661 5659 5664 5664 5671 5669 5668 5674 5675 5677 5679 5682 5683 5687 5694 5701 5706 5710 5715 5719 5722 5726 5728 5729 5730 5732 5733 5735 5737 5736 5734 5730 5727 5724 5720 5718 5717 5715 5713 5712 5710
5617 5618 5637 5632 5641 5646 5649 5653 5654 5658 5663 5667 5671 5670 5672 5676 5677 5683 5690 5698 5702 5707 5711 5715 5719 5721 5723 5725 5727 5728 5730 5731 5731 5729 5725 5723 5720 5716 5714 5713 5711 5709 5706 5703
5596 5599 5604 5611 5618 5624 5635 5641 5641 5645 5651 5656 5661 5665 5663 5667 5673 5674 5680 5688 5694 5699 5704 5708 5712 5715 5718 5720 5723 5724 5725 5726 5726 5724 5722 5720 5717 5714 5710 5708 5706 5704 5702 5698
5581 5581 5584 5593 5607 5609 5617 5624 5630 5629 5631 5638 5650 5656 5657 5664 5666 5669 5673 5678 5683 5690 5695 5699 5704 5709 5713 5715 5718 5720 5721 5721 5722 5720 5719 5718 5716 5712 5708 5705 5703 5701 5698 5695
5563 5564 5568 5573 5587 5594 5599 5606 5611 5615 5622 5631 5639 5645 5648 5660 5660 5661 5665 5671 5678 5682 5687 5694 5699 5703 5707 5711 5714 5716 5717 5717 5717 5718 5716 5716 5715 5711 5706 5704 5702 5700 5698 5696
5546 5547 5552 5556 5565 5576 5580 5587 5594 5593 5604 5613 5619 5631 5636 5647 5652 5655 5656 5660 5668 5675 5682 5687 5692 5696 5700 5705 5708 5711 5712 5713 5714 5715 5714 5715 5714 5711 5707 5704 5702 5700 5699 5699
5535 5535 5537 5538 5550 5556 5564 5571 5576 5584 5593 5599 5606 5618 5629 5635 5643 5648 5651 5654 5659 5668 5676 5680 5686 5691 5696 5700 5703 5706 5707 5709 5710 5712 5712 5713 5712 5710 5708 5705 5702 5701 5700 5701
5524 5524 5526 5526 5536 5540 5542 5561 5567 5573 5580 5590 5594 5607 5618 5626 5632 5637 5643 5652 5655 5662 5669 5677 5682 5687 5691 5696 5699 5701 5704 5706 5707 5709 5710 5710 5711 5710 5708 5706 5705 5702 5702 5702
5516 5516 5517 5518 5523 5520 5533 5545 5554 5561 5567 5575 5582 5599 5609 5615 5624 5633 5637 5643 5650 5657 5664 5670 5675 5681 5686 5691 5695 5698 5700 5703 5705 5707 5708 5708 5709 5709 5709 5707 5706 5706 5704 5704
5508 5508 5508 5509 5513 5518 5522 5535 5544 5545 5556 5560 5571 5588 5599 5607 5615 5624 5630 5637 5643 5650 5657 5664 5669 5675 5681 5686 5689 5693 5696 5698 5702 5704 5706 5706 5707 5708 5708 5708 5707 5707 5707 5707
5504 5503 5503 5506 5510 5514 5522 5526 5531 5537 5542 5550 5560 5575 5583 5596 5604 5613 5621 5629 5636 5642 5650 5657 5663 5669 5676 5680 5684 5689 5692 5695 5698 5701 5703 5704 5705 5706 5707 5708 5708 5708 5708 5709
5501 5501 5501 5502 5506 5512 5517 5520 5523 5529 5534 5537 5547 5560 5574 5586 5596 5605 5612 5620 5628 5635 5643 5650 5658 5663 5670 5676 5680 5684 5688 5691 5695 5698 5700 5701 5703 5705 5706 5707 5707 5707 5707 5708
5498 5497 5498 5502 5505 5508 5511 5515 5518 5522 5524 5530 5539 5550 5563 5574 5586 5595 5603 5610 5618 5628 5636 5644 5651 5658 5665 5670 5675 5679 5683 5687 5691 5695 5697 5698 5700 5703 5704 5705 5706 5706 5706 5707
5493 5493 5494 5495 5501 5503 5507 5510 5511 5515 5520 5524 5530 5542 5555 5566 5578 5585 5595 5603 5609 5619 5628 5637 5645 5652 5659 5664 5670 5674 5679 5682 5687 5691 5694 5696 5697 5700 5702 5703 5704 5704 5705 5705
5488 5486 5488 5492 5494 5496 5499 5505 5508 5511 5514 5518 5525 5532 5542 5553 5568 5577 5585 5593 5602 5610 5620 5630 5638 5647 5653 5658 5664 5670 5675 5678 5683 5688 5691 5693 5694 5697 5699 5701 5702 5703 5704 5705
5482 5480 5484 5488 5491 5492 5496 5500 5502 5505 5507 5512 5517 5523 5530 5539 5551 5565 5574 5583 5592 5602 5611 5622 5630 5640 5646 5652 5659 5665 5670 5674 5679 5684 5688 5690 5692 5694 5696 5698 5701 5702 5703 5703
5479 5479 5482 5485 5484 5486 5489 5491 5498 5503 5507 5509 5512 5516 5521 5528 5539 5552 5563 5572 5581 5592 5603 5614 5623 5632 5640 5646 5654 5661 5666 5670 5675 5681 5685 5687 5690 5691 5693 5696 5699 5700 5701 5701